Location: Unspecified
(41.9031°N, 12.4386°E)
Time: 05:45:17
(UTC+01:00)

ISS - Pass Details

Date: 23 February 2020
Orbit: 415 x 423 km, 51.6° (Epoch: 27 February)

Event Time Altitude Azimuth Distance (km) Brightness Sun altitude
Exits shadow 05:54:53 11° 227° (SW) 1,437 -1.5 -12.0°
Maximum altitude 05:58:05 72° 142° (SE) 445 -3.5 -11.4°
Drops below altitude 10° 06:01:27 10° 59° (ENE) 1,506 -0.1 -10.8°
Sets 06:03:33 0° 57° (ENE) 2,375 1.0 -10.4°
